Flag for Guatemala Weather past 2 weeks in Escuintla, Guatemala

Now
70 °F

Broken clouds.


Feels Like: 70 °F
Forecast: 72 / 82 °F
Wind: 12 mph from South

Location: Guatemala Aeropuertola Aurora

Current Time: Aug 29, 2014 at 12:22:33 PM

Latest Report: Aug 29, 2014 at 12:00 PM


Visibility: N/A

Pressure: 30.21 "Hg

Humidity: 78%

Dew point: 63 °F

Location of EscuintlaLocation

Historic Weather in Escuintla — Graph

°F

Escuintla temperature yesterday

Maximum temperature yesterday: 77 °F (at 12:00 PM)
Minimum temperature yesterday: 63 °F (at 11:00 PM)
Average temperature yesterday: 67 °F

Past Weeks' High & Low Weather Summary

 TemperatureHumidityPressure
High82 °F (Aug 26, 3:00 PM)100% (Aug 17, 12:00 AM)30.36 "Hg (Aug 17, 12:00 AM)
Low59 °F (Aug 24, 5:00 AM)39% (Aug 15, 3:00 PM)30.12 "Hg (Aug 25, 4:00 PM)
Average69 °F75%30.26 "Hg
* Reported Aug 14 11:00 AM — Aug 29 11:00 AM, Escuintla, Weather by CustomWeather, © 2014

Note: Actual official high and low records may vary slightly from our data, if they occured in-between our weather recording intervals... More about our weather records

Advertising

Escuintla weather history for previous 24 hours

 ConditionsComfort  
Time TempWeatherWind HumidityBarometerVisibility
11:00 AM
Aug 29
72 °FScattered clouds.7 mph73%30.24 "HgN/A
10:00 AM70 °FPartly sunny.No wind69%30.24 "HgN/A
9:00 AM68 °FScattered clouds.5 mph78%30.24 "HgN/A
8:00 AM64 °FScattered clouds.7 mph94%30.24 "Hg5 mi
7:00 AM63 °FScattered clouds.5 mph94%30.21 "Hg5 mi
6:00 AM63 °FPartly sunny.5 mph94%30.21 "Hg4 mi
5:00 AM63 °FPassing clouds.No wind100%30.18 "Hg4 mi
4:10 AMN/ADrizzle.No windN/AN/A3 mi
4:00 AM63 °FFog.No wind100%30.21 "Hg1 mi
3:00 AM63 °FSnow. Fog.No wind94%30.21 "Hg1 mi
2:00 AM63 °FPartly cloudy.5 mph100%30.21 "Hg5 mi
1:00 AM63 °FPartly cloudy.No wind100%30.24 "Hg4 mi
12:00 AM63 °FRain. Partly cloudy.No wind94%30.27 "Hg4 mi
11:00 PM
Aug 28
63 °FRain. Partly cloudy.5 mph100%30.27 "Hg4 mi
10:00 PM64 °FFog.5 mph94%30.27 "Hg1 mi
9:00 PM64 °FRain. Partly cloudy.5 mph94%30.24 "Hg3 mi
8:00 PM64 °FThunderstorms. Partly cloudy.9 mph94%30.21 "Hg4 mi
7:00 PM64 °FRain. Partly cloudy.9 mph94%30.18 "Hg5 mi
6:00 PM66 °FDrizzle. Broken clouds.9 mph94%30.18 "HgN/A
5:20 PMN/ALight rain.7 mphN/AN/A4 mi
4:00 PM68 °FRain showers. Broken clouds.9 mph83%30.18 "Hg5 mi
3:00 PM68 °FThundershowers. Broken clouds.9 mph83%30.18 "Hg5 mi
2:00 PM68 °FDrizzle. Broken clouds.9 mph83%30.18 "Hg5 mi
1:30 PMN/ARain.14 mphN/AN/A3 mi
1:00 PM75 °FScattered clouds.7 mph57%30.18 "Hg5 mi
12:00 PM77 °FPartly sunny.12 mph57%30.21 "HgN/A
Weather by CustomWeather, © 2014

See weather overviewHow to use our weather pages